Date String (YYYY-MM-DD hh:mm:ss) UTC,Instrument flags,Ambient pressure (hPa),Sample flow (lpm),Bypass flow (lpm),Sample temperature (°C),Ambient temperature (°C),ASC tube jacket temperature (°C),LED temperature (°C),Box temperature (°C),Sample RH (%),Span deviation,Mass concentration (μg/m³),Mass concentration (μg/m³),Mass concentration (μg/m³)
DateTimeUTC,F1_M11,P_M11,Q1_M11,Q2_M11,T1_M11,T2_M11,T3_M11,T4_M11,T5_M11,U1_M11,ZSPAN_M11,X0_M11,X2_M11,X1_M11
2022-10-01 18:00:00,,0827.6,5.00,0.00,29.8,28.3,00.0,38.5,31.7,26.3,0000.0,0003.58,0002.48,0002.06
2022-10-01 18:01:00,,0827.6,4.99,0.00,29.8,28.4,00.0,38.5,31.7,26.2,0000.0,0003.60,0002.52,0002.11
2022-10-01 18:02:00,,0827.6,5.01,0.00,29.8,28.5,00.0,38.5,31.8,25.5,0000.0,0003.61,0002.57,0002.18
2022-10-01 18:03:00,,0827.6,4.98,0.00,29.9,28.6,00.0,38.5,31.8,26.1,0000.0,0003.71,0002.65,0002.25
2022-10-01 18:04:00,,0827.6,5.01,0.00,29.9,28.7,00.0,38.5,31.8,26.6,0000.0,0003.65,0002.68,0002.33
2022-10-01 18:05:00,,0827.5,4.99,0.00,29.9,28.8,00.0,38.6,31.9,26.4,0000.0,0003.81,0002.79,0002.41
2022-10-01 18:06:00,,0827.6,5.02,0.00,29.9,28.9,00.0,38.6,31.9,25.8,0000.0,0004.03,0002.91,0002.50
2022-10-01 18:07:00,,0827.6,4.98,0.00,30.0,28.9,00.0,38.6,31.9,26.1,0000.0,0004.17,0002.97,0002.55
2022-10-01 18:08:00,,0827.5,5.01,0.00,30.0,29.0,00.0,38.6,31.9,26.4,0000.0,0004.08,0002.97,0002.56
2022-10-01 18:09:00,,0827.5,5.00,0.00,30.0,29.0,00.0,38.7,32.0,25.8,0000.0,0003.96,0002.98,0002.61
2022-10-01 18:10:00,,0827.5,5.00,0.00,30.1,29.1,00.0,38.7,32.0,26.2,0000.0,0004.10,0003.04,0002.65
2022-10-01 18:11:00,,0827.5,5.01,0.00,30.1,29.1,00.0,38.7,32.0,25.9,0000.0,0004.21,0003.11,0002.71
2022-10-01 18:12:00,,0827.5,4.99,0.00,30.1,29.2,00.0,38.7,32.1,26.3,0000.0,0004.32,0003.15,0002.78
2022-10-01 18:13:00,,0827.5,4.99,0.00,30.2,28.7,00.0,38.7,32.1,25.5,0000.0,0004.51,0003.19,0002.81
2022-10-01 18:14:00,,0827.6,5.01,0.00,30.1,27.2,00.0,38.7,31.9,25.2,0000.0,0004.48,0003.19,0002.84
2022-10-01 18:15:00,,0827.5,5.00,0.00,30.1,26.4,00.0,38.7,31.8,25.8,0000.0,0004.56,0003.21,0002.85
2022-10-01 18:16:00,,0827.5,5.00,0.00,30.0,26.5,00.0,38.6,31.7,26.1,0000.0,0004.62,0003.23,0002.87
2022-10-01 18:17:00,,0827.5,4.98,0.00,29.9,26.8,00.0,38.6,31.6,26.8,0000.0,0004.63,0003.25,0002.89
2022-10-01 18:18:00,,0827.5,4.99,0.00,29.8,27.2,00.0,38.6,31.6,27.4,0000.0,0004.50,0003.24,0002.89
2022-10-01 18:19:00,,0827.5,5.00,0.00,29.8,27.5,00.0,38.5,31.6,26.4,0000.0,0004.57,0003.26,0002.92
2022-10-01 18:20:00,,0827.5,5.00,0.00,29.8,27.8,00.0,38.5,31.6,25.9,0000.0,0004.55,0003.25,0002.91
2022-10-01 18:21:00,,0827.5,5.00,0.00,29.8,28.0,00.0,38.5,31.6,25.9,0000.0,0004.51,0003.25,0002.94
2022-10-01 18:22:00,,0827.4,5.00,0.00,29.8,28.2,00.0,38.5,31.7,26.2,0000.0,0004.52,0003.26,0002.96
2022-10-01 18:23:00,,0827.4,5.00,0.00,29.8,28.4,00.0,38.5,31.7,26.6,0000.0,0004.59,0003.28,0002.98
2022-10-01 18:24:00,,0827.4,5.02,0.00,29.8,28.5,00.0,38.5,31.7,26.5,0000.0,0004.54,0003.29,0003.03
2022-10-01 18:25:00,,0827.4,4.98,0.00,29.9,28.6,00.0,38.5,31.7,26.5,0000.0,0004.65,0003.34,0003.08
2022-10-01 18:26:00,,0827.4,5.01,0.00,29.9,28.7,00.0,38.6,31.8,26.6,0000.0,0004.69,0003.37,0003.12
2022-10-01 18:27:00,,0827.4,4.99,0.00,29.9,28.8,00.0,38.6,31.8,27.3,0000.0,0004.70,0003.38,0003.13
2022-10-01 18:28:00,,0827.5,5.01,0.00,29.9,28.9,00.0,38.6,31.9,26.2,0000.0,0004.69,0003.38,0003.14
2022-10-01 18:29:00,,0827.5,4.99,0.00,30.0,29.0,00.0,38.6,31.9,25.5,0000.0,0004.92,0003.43,0003.17
2022-10-01 18:30:00,,0827.5,5.01,0.00,30.0,29.0,00.0,38.6,32.0,25.6,0000.0,0006.15,0003.47,0003.21
2022-10-01 18:31:00,,0827.5,4.99,0.00,30.0,29.0,00.0,38.7,32.0,25.4,0000.0,0006.88,0003.49,0003.23
2022-10-01 18:32:00,,0827.4,5.01,0.00,30.1,29.1,00.0,38.7,32.0,26.1,0000.0,0007.07,0003.54,0003.26
2022-10-01 18:33:00,,0827.4,4.98,0.00,30.1,29.1,00.0,38.7,32.0,26.2,0000.0,0007.22,0003.59,0003.29
2022-10-01 18:34:00,,0827.4,5.00,0.00,30.1,28.4,00.0,38.7,32.0,26.5,0000.0,0007.30,0003.62,0003.31
2022-10-01 18:35:00,,0827.4,5.00,0.00,30.1,27.3,00.0,38.7,31.9,26.4,0000.0,0007.50,0003.64,0003.33
2022-10-01 18:36:00,,0827.4,5.00,0.00,30.1,27.1,00.0,38.7,31.9,26.7,0000.0,0007.52,0003.64,0003.34
2022-10-01 18:37:00,,0827.4,5.00,0.00,30.0,27.3,00.0,38.6,31.7,26.3,0000.0,0007.66,0003.71,0003.39
2022-10-01 18:38:00,,0827.4,5.00,0.00,29.9,27.6,00.0,38.6,31.7,27.1,0000.0,0007.87,0003.75,0003.43
2022-10-01 18:39:00,,0827.4,5.00,0.00,29.9,27.9,00.0,38.6,31.7,26.6,0000.0,0007.95,0003.81,0003.49
2022-10-01 18:40:00,,0827.4,5.00,0.00,29.9,28.1,00.0,38.6,31.7,26.2,0000.0,0007.95,0003.83,0003.54
2022-10-01 18:41:00,,0827.4,5.00,0.00,29.9,28.3,00.0,38.6,31.8,26.4,0000.0,0007.39,0003.87,0003.58
2022-10-01 18:42:00,,0827.4,5.01,0.00,29.9,28.5,00.0,38.6,31.8,26.2,0000.0,0007.05,0003.96,0003.64
2022-10-01 18:43:00,,0827.4,4.99,0.00,29.9,28.6,00.0,38.6,31.9,26.2,0000.0,0006.99,0003.98,0003.67
2022-10-01 18:44:00,,0827.4,5.00,0.00,30.0,28.7,00.0,38.6,31.9,26.5,0000.0,0006.94,0003.99,0003.70
2022-10-01 18:45:00,,0827.4,5.01,0.00,30.0,28.8,00.0,38.6,31.9,26.9,0000.0,0006.86,0004.01,0003.74
2022-10-01 18:46:00,,0827.4,4.99,0.00,30.0,28.9,00.0,38.7,32.0,27.3,0000.0,0006.79,0004.05,0003.76
2022-10-01 18:47:00,,0827.4,5.01,0.00,30.0,29.0,00.0,38.7,32.0,27.1,0000.0,0006.87,0004.13,0003.82
2022-10-01 18:48:00,,0827.4,4.99,0.00,30.1,29.0,00.0,38.7,32.0,27.4,0000.0,0007.82,0004.17,0003.86
2022-10-01 18:49:00,,0827.4,5.01,0.00,30.1,29.1,00.0,38.7,32.0,26.8,0000.0,0007.72,0004.18,0003.89
2022-10-01 18:50:00,,0827.4,5.00,0.00,30.1,29.2,00.0,38.7,32.1,26.3,0000.0,0007.73,0004.24,0003.95
2022-10-01 18:51:00,,0827.4,4.99,0.00,30.2,28.5,00.0,38.8,32.0,26.7,0000.0,0007.98,0004.32,0004.00
2022-10-01 18:52:00,,0827.4,5.02,0.00,30.1,27.0,00.0,38.7,31.9,27.3,0000.0,0008.18,0004.37,0004.04
2022-10-01 18:53:00,,0827.3,5.00,0.00,30.0,26.4,00.0,38.7,31.8,27.1,0000.0,0008.53,0004.39,0004.06
2022-10-01 18:54:00,,0827.3,5.00,0.00,30.0,26.5,00.0,38.6,31.7,27.0,0000.0,0009.12,0004.45,0004.12
2022-10-01 18:55:00,,0827.3,4.99,0.00,29.9,26.8,00.0,38.6,31.5,27.2,0000.0,0009.29,0004.53,0004.18
2022-10-01 18:56:00,,0827.4,4.98,0.00,29.8,27.2,00.0,38.6,31.5,27.2,0000.0,0009.39,0004.59,0004.24
2022-10-01 18:57:00,,0827.4,4.99,0.00,29.8,27.5,00.0,38.5,31.6,27.0,0000.0,0009.46,0004.67,0004.31
2022-10-01 18:58:00,,0827.3,5.00,0.00,29.8,27.8,00.0,38.5,31.6,27.3,0000.0,0009.42,0004.68,0004.34
2022-10-01 18:59:00,,0827.4,5.00,0.00,29.8,28.0,00.0,38.5,31.6,27.8,0000.0,0008.71,0004.69,0004.36
